{"data":{"norad_id":62438,"epoch":"2026-09-21T20:35:08.596896Z","epoch_age_seconds":57221,"freshness":"FRESH","line1":"1 62438U 24251G   26264.85773839  .00018231  00000+0  54920-3 0  9994","line2":"2 62438  53.1581 141.2107 0001987  97.2436 262.8793 15.34410396 97964","mean_motion":15.34410396,"eccentricity":0.0001987,"inclination_deg":53.1581,"raan_deg":141.2107,"arg_perigee_deg":97.2436,"mean_anomaly_deg":262.8793,"bstar":0.0005492,"rev_number":9796,"period_min":93.84712224017,"perigee_km":461.31307246259,"apogee_km":464.03161009482,"semimajor_km":6840.8093412787,"source":"CELESTRAK","updated_at":"2026-09-22T09:00:49.581116Z"}}